Preview of NWS' New Version of Forecast
This preview is not operational and should not be used for support decisions.

Regional Weather Roundup (RWR)

Issued by National Weather Service (NWS)

                            
000
ASUS44 KMEG 220210
RWRTN 
TENNESSEE HOURLY STATE WEATHER ROUNDUP
NATIONAL WEATHER SERVICE MEMPHIS TN
800 PM CST THU FEB 21 2019

TNZ002-004-019-021-049-052-054-088>092-220300-
WEST TENNESSEE
  
CITY           SKY/WX    TMP DP  RH WIND       PRES   REMARKS
MEMPHIS INTL   LGT RAIN  46  44  93 NE10      30.17F                  
NWS MEMPHIS      N/A     45 N/A N/A MISG        N/A                   
JACKSON        LGT RAIN  45  42  89 E9        30.20S                  
DYERSBURG      LGT RAIN  42  40  92 NE9       30.24R                  
SOMERVILLE     CLOUDY    45  45 100 NE8G16    30.15F                  
COVINGTON      CLOUDY    43  43 100 NE10      30.20F FOG              
UNION CITY     CLOUDY    41  37  87 CALM      30.23R                  
PARIS          MOCLDY    43  41  93 NE8       30.23R                  
HUNTINGDON     CLOUDY    45  43  93 NE8       30.22R                  
SELMER         CLOUDY    45  45 100 NE7       30.20R FOG              
SAVANNAH       CLOUDY    46  45  93 N7        30.20R                  
$$

TNZ008-025-027-028-033-062-065-066-220300-
NORTH MIDDLE TENNESSEE
  
CITY           SKY/WX    TMP DP  RH WIND       PRES   REMARKS
NASHVILLE      DRIZZLE   46  41  82 N8        30.25R                  
DICKSON        CLOUDY    45  41  87 CALM      30.24R                  
CLARKSVILLE    CLOUDY    42  36  79 NE5       30.23F                  
LEBANON        CLOUDY    45  43  93 N6        30.22S                  
SMYRNA         LGT RAIN  46  44  93 N10       30.24R                  
MURFREESBORO   MOCLDY    46  45  93 N6        30.20S                  
COOKEVILLE     CLOUDY    46  45  93 NW6       30.21S                  
LIVINGSTON     CLOUDY   N/A N/A N/A MISG      30.21R                  
GALLATIN       CLOUDY    45  43  93 N7        30.25F                  
CROSSVILLE     CLOUDY    44  41  89 NE13      30.17F                  
ROCKWOOD       CLOUDY    45  45 100 NE6       30.18F FOG              
$$

TNZ061-075-076-078-094-096-097-220300-
SOUTH MIDDLE TENNESSEE
  
CITY           SKY/WX    TMP DP  RH WIND       PRES   REMARKS
LAWRENCEBURG   CLOUDY    45  43  93 N10G18    30.18R                  
LEWISBURG      CLOUDY    46  45  93 N5        30.21R                  
FAYETTEVILLE   CLOUDY    48  48 100 N10G16    30.17R                  
TULLAHOMA      CLOUDY    46  45  93 N8        30.19R                  
WINCHESTER     CLOUDY    48  46  93 NW5G12    30.19R FOG              
MCMINNVILLE    CLOUDY    46  45  93 NE8       30.20R FOG              
COLUMBIA       CLOUDY    45  45 100 N5        30.20R FOG              
SHELBYVILLE    MOCLDY    46  45  93 NE7       30.20R                  
$$

TNZ017-018-042-046-047-220300-
NORTHEAST TENNESSEE
  
CITY           SKY/WX    TMP DP  RH WIND       PRES   REMARKS
TRI CITIES     LGT RAIN  52  49  89 N6        30.21R                  
ELIZABETHTON   LGT RAIN  54  52  94 CALM      30.19R                  
GREENEVILLE    CLOUDY    52  52 100 N5        30.20R FOG              
$$

TNZ012-013-036-069-073-074-220300-
CENTRAL EAST TENNESSEE
  
CITY           SKY/WX    TMP DP  RH WIND       PRES   REMARKS
KNOXVILLE      RAIN      49  46  90 N6        30.21R FOG              
OAK RIDGE      LGT RAIN  49  48  97 NE3       30.23R                  
DOWNTOWN KNOXV CLOUDY    50  48  93 CALM      30.24R FOG              
GATLINBURG     CLOUDY    52  52 100 NW3       30.22R FOG              
MORRISTOWN     CLOUDY    50  50 100 N6        30.20R                  
JACKSBORO      CLOUDY    46  45  93 CALM      30.26R                  
$$

TNZ083-085-099-220300-
SOUTHEAST TENNESSEE
  
CITY           SKY/WX    TMP DP  RH WIND       PRES   REMARKS
CHATTANOOGA    HVY RAIN  51  49  92 N12       30.18R FOG              
DAYTON         MOCLDY    50  48  93 NE5       30.18F                  
$$

SKY/WX REPORTED AS FAIR MEANS FEW OR NO CLOUDS BELOW
12 THOUSAND FEET.